Regional Weather Roundup
Issued by NWS

Home | Current Version | Previous Version | Graphics & Text | Print | Product List | Glossary On
Versions: 1 2 3 4 5 6 7 8 9 10 11 12 13 14 15 16 17 18 19 20 21 22 23 24 25 26 27 28 29 30 31 32 33 34 35 36 37 38 39 40 41 42 43 44 45 46 47 48 49 50
000
ASUS45 KPSR 100010
RWRAZ

ARIZONA HOURLY REGIONAL WEATHER ROUNDUP
NATIONAL WEATHER SERVICE PHOENIX AZ
500 PM MST TUE FEB 09 2016

NOTE: FAIR INDICATES FEW OR NO CLOUDS BELOW 12,000 FEET WITH NO
SIGNIFICANT WEATHER AND/OR OBSTRUCTIONS TO VISIBILITY.

AZZ001>003-036-100100-
NORTHWEST ARIZONA

CITY           SKY/WX    TMP DP  RH WIND       PRES   REMARKS
KINGMAN        SUNNY     68  22  17 N10       30.25F
6HR MIN TEMP:  60; 6HR MAX TEMP:  70;

$$

AZZ004>008-015-016-018-100100-
NORTH CENTRAL ARIZONA

CITY           SKY/WX    TMP DP  RH WIND       PRES   REMARKS
GRAND CANYON   SUNNY     56   9  15 E9        30.42S
6HR MIN TEMP:  52; 6HR MAX TEMP:  57;

WILLIAMS       SUNNY     59  21  23 N7        30.43S
PRESCOTT       SUNNY     68  15  13 CALM      30.30F
6HR MIN TEMP:  57; 6HR MAX TEMP:  70;

FLAGSTAFF      SUNNY     53   9  17 E14       30.40S
6HR MIN TEMP:  48; 6HR MAX TEMP:  55;

PAYSON         SUNNY     66  12  12 N10       30.31S
PAGE           SUNNY     52  25  35 NE8       30.38F
6HR MIN TEMP:  42; 6HR MAX TEMP:  53;

$$

AZZ009>014-017-100100-
NORTHEAST ARIZONA

CITY           SKY/WX    TMP DP  RH WIND       PRES   REMARKS
WINSLOW        SUNNY     61  20  20 NW6       30.36S
6HR MIN TEMP:  47; 6HR MAX TEMP:  61;

SAINT JOHNS    CLEAR     57  19  22 NW6       30.35R
6HR MIN TEMP:  44; 6HR MAX TEMP:  58;

WINDOW ROCK    CLEAR     56   0  10 SW3       30.38R
6HR MIN TEMP:  46; 6HR MAX TEMP:  58;

SHOW LOW       SUNNY     50  18  27 N12       30.39R
$$

AZZ023-100100-
GREATER PHOENIX AREA

CITY           SKY/WX    TMP DP  RH WIND       PRES   REMARKS
PHOENIX        SUNNY     86  17   8 NE8       30.07F
6HR MIN TEMP:  76; 6HR MAX TEMP:  86;

BUCKEYE        SUNNY     82  23  11 E7        30.11S
GLENDALE       SUNNY     84  19   9 NE7       30.09F
LUKE AFB       SUNNY     84  17   8 E5        30.07F
6HR MIN TEMP:  71; 6HR MAX TEMP:  85;

DEER VALLEY    SUNNY     83  21  10 E7        30.09F
6HR MIN TEMP:  76; 6HR MAX TEMP:  83;

SCOTTSDALE     SUNNY     82  15   8 E7        30.11F
6HR MIN TEMP:  74; 6HR MAX TEMP:  83;

MESA-GATEWAY   SUNNY     81  27  13 NW6       30.10F
CHANDLER       SUNNY     82  25  12 N7        30.09F
$$

AZZ027-028-100100-
SOUTHWEST MARICOPA COUNTY AND PINAL COUNTY

CITY           SKY/WX    TMP DP  RH WIND       PRES   REMARKS
CASA GRANDE    SUNNY     81  27  13 NE8       30.10F
6HR MIN TEMP:  73; 6HR MAX TEMP:  82;

$$

AZZ503-504-507>509-100100-
SOUTHEAST ARIZONA

CITY           SKY/WX    TMP DP  RH WIND       PRES   REMARKS
TUCSON         SUNNY     82  14   8 N6        30.14S
6HR MIN TEMP:  73; 6HR MAX TEMP:  83;

DAVIS-MONTHAN  SUNNY     80  14   8 N8        30.13R
6HR MIN TEMP:  73; 6HR MAX TEMP:  81;

RYAN FIELD     SUNNY     82  21  10 N5        30.13S
NOGALES        SUNNY     77  11   8 NE9       30.17R
6HR MIN TEMP:  67; 6HR MAX TEMP:  81;

DOUGLAS        SUNNY     71  13  10 E13       30.22S
6HR MIN TEMP:  63; 6HR MAX TEMP:  73;

SAFFORD        SUNNY     72  20  14 S3        30.20S
6HR MIN TEMP:  62; 6HR MAX TEMP:  72;

$$

AZZ020-021-025-026-031-100100-
SOUTHWEST ARIZONA

CITY           SKY/WX    TMP DP  RH WIND       PRES   REMARKS
YUMA           SUNNY     84  23  10 N10       30.08S
6HR MIN TEMP:  75; 6HR MAX TEMP:  85;

$$

CAZ031-033-041-043-047-048-061-100100-
SOUTHERN CALIFORNIA

CITY           SKY/WX    TMP DP  RH WIND       PRES   REMARKS
DOWNTOWN L.A.  SUNNY     86  30  13 CALM      30.05R
6HR MIN TEMP:  80; 6HR MAX TEMP:  89;

L.A. AIRPORT   MOSUNNY   80  34  19 W9        30.07R
6HR MIN TEMP:  79; 6HR MAX TEMP:  88;

SAN DIEGO      MOSUNNY   80  28  15 NW9       30.05S
6HR MIN TEMP:  78; 6HR MAX TEMP:  83;

BURBANK        SUNNY     87  25  10 W8        30.08R
6HR MIN TEMP:  73; 6HR MAX TEMP:  87;

ONTARIO        MOSUNNY   86  22   9 SW5       30.09R
6HR MIN TEMP:  73; 6HR MAX TEMP:  88;

RIVERSIDE      SUNNY     87  23   9 N7        30.09R
6HR MIN TEMP:  78; 6HR MAX TEMP:  88;

PALM SPRINGS   SUNNY     88  22   9 CALM      30.12R
6HR MIN TEMP:  80; 6HR MAX TEMP:  88;

EL CENTRO NAS  SUNNY     86  21   9 N3        30.10F
6HR MIN TEMP:  77; 6HR MAX TEMP:  87;

IMPERIAL       SUNNY     86  27  11 NW3       30.08S
6HR MIN TEMP:  76; 6HR MAX TEMP:  87;

BLYTHE         SUNNY     83  25  12 N8        30.11F
6HR MIN TEMP:  70; 6HR MAX TEMP:  83;

NEEDLES        SUNNY     79  23  12 N16       30.15F
6HR MIN TEMP:  71; 6HR MAX TEMP:  80;

$$

NVZ020-UTZ003-100100-
SOUTHERN NEVADA-UTAH

CITY           SKY/WX    TMP DP  RH WIND       PRES   REMARKS
LAS VEGAS      SUNNY     72  25  17 N6        30.22F
6HR MIN TEMP:  61; 6HR MAX TEMP:  73;

SALT LAKE CITY CLEAR     38  30  73 NW7       30.50F HAZE    WCI  33
6HR MIN TEMP:  35; 6HR MAX TEMP:  40;

$$

NMZ009-TXZ055-100100-
NEW MEXICO-WEST TEXAS

CITY           SKY/WX    TMP DP  RH WIND       PRES   REMARKS
ALBUQUERQUE    CLEAR     59  19  21 CALM      30.32R
6HR MIN TEMP:  49; 6HR MAX TEMP:  61;

EL PASO        CLEAR     65  17  15 CALM      30.27S
6HR MIN TEMP:  52; 6HR MAX TEMP:  66;

$$


........................KEY........................
SKY/WX - SKY CONDITION/WEATHER
TMP    - TEMPERATURE IN FAHRENHEIT
DP     - DEW POINT IN FAHRENHEIT
RH     - RELATIVE HUMIDITY IN PERCENT
WIND   - DIRECTION AND SPEED IN MILES PER HOUR (MPH)
VRB    - VARIABLE WIND DIRECTION
PRES   - MEAN SEA LEVEL PRESSURE IN INCHES OF MERCURY
         F - FALLING PRESSURE   R - RISING PRESSURE
         S - STEADY PRESSURE
VSB    - VISIBILITY IN MILES
HX     - HEAT INDEX IN FAHRENHEIT
WCI    - WIND CHILL INDEX IN FAHRENHEIT
TC     - TEMPERATURE IN CELSIUS WHICH IS ALSO KNOWN AS
         TEMPERATURE IN CENTIGRADE
AFB    - AIR FORCE BASE
         LUKE AFB IS LUKE AIR FORCE BASE
         DAVIS-MONTHAN IS DAVIS-MONTHAN AIR FORCE BASE
NAS    - NAVAL AIR STATION
         EL CENTRO NAS IS EL CENTRO NAVAL AIR STATION
N/A    - NOT AVAILABLE




USA.gov is the U.S. government's official web portal to all federal, state and local government web resources and services.